Wind_Speed
17 19 21 22 23 25 23 24 24 25 31 33 33 35 37 38 38 40 42 41 41 44 42 40 38 39 40 40 43 46 43 43 48 53 52 51 51 53 56 56 48 45 44 38
21 22 22 23 24 25 24 24 23 22 24 24 24 26 28 28 28 32 36 37 39 41 42 44 46 43 44 44 44 44 41 40 43 47 48 48 50 53 57 60 61 56 48 45
23 23 23 24 25 25 27 28 29 27 26 27 27 28 29 29 28 29 31 32 33 34 38 43 42 48 44 38 38 38 40 42 42 41 41 41 43 46 50 53 51 47 48 49
25 25 24 24 24 25 27 29 30 29 29 29 30 31 32 33 34 34 35 36 35 35 37 42 44 44 46 42 38 39 44 45 48 46 39 40 37 44 44 50 53 53 46 38
21 23 24 24 24 24 26 27 27 28 29 30 31 34 33 35 37 38 40 41 43 44 44 45 46 47 49 49 50 51 53 50 48 51 45 41 42 46 44 46 39 36 26 20
15 18 19 20 21 22 22 23 23 23 21 22 24 28 30 30 33 38 43 46 48 49 51 50 48 49 51 54 57 60 61 55 49 55 50 46 41 45 38 30 22 19 19 21
9 13 15 16 18 20 19 20 21 20 17 18 21 22 20 21 25 30 36 41 45 48 50 51 53 54 55 59 62 62 60 55 51 48 49 48 46 41 33 26 21 19 21 26
12 13 13 14 16 15 16 19 22 22 18 15 16 17 15 19 23 26 29 34 39 42 46 49 53 56 59 60 60 60 56 52 48 41 44 38 33 39 35 26 21 22 23 26
12 13 14 15 14 14 13 16 18 20 19 18 16 16 19 24 24 24 26 29 32 36 41 45 49 53 56 57 56 55 54 51 48 40 41 40 32 25 26 23 22 25 25 27
4 5 6 5 8 11 13 15 18 21 23 24 21 18 23 26 24 26 30 32 34 37 40 43 49 54 57 55 53 54 53 47 42 40 45 46 33 26 21 19 23 26 28 32
5 6 8 10 13 16 17 18 20 22 25 29 28 20 27 28 28 31 34 35 35 35 38 43 46 49 53 49 40 36 36 39 39 33 39 40 34 28 22 21 25 30 32 32
12 13 13 16 18 20 22 23 25 27 29 30 32 23 29 30 30 32 34 36 36 37 40 43 42 41 38 32 27 25 24 27 29 30 30 33 30 29 25 26 30 32 28 24
20 20 20 21 23 25 26 26 28 30 32 33 34 28 31 33 31 34 35 35 36 36 38 43 40 32 21 20 23 23 26 26 27 28 27 27 31 29 26 29 30 31 29 26
25 25 25 27 29 31 31 32 33 34 33 35 33 34 31 33 33 33 34 34 35 34 34 39 36 27 22 20 21 17 22 23 22 24 28 28 27 25 25 28 29 26 25 26
24 25 25 24 27 29 30 32 37 39 37 38 33 34 34 32 33 32 31 32 33 32 33 36 32 28 28 23 18 16 19 18 18 21 23 23 20 19 21 24 26 25 25 26
23 25 26 25 28 30 25 25 34 39 38 40 38 32 35 33 34 32 29 30 31 30 30 30 28 25 27 33 31 21 22 21 22 25 24 25 27 27 25 24 26 25 25 26
24 28 30 28 27 27 22 24 31 36 37 37 35 35 35 34 34 31 28 28 28 28 24 25 22 22 24 23 27 26 35 38 28 25 26 26 26 25 24 25 26 26 26 27
26 30 32 32 30 27 24 25 29 32 32 33 36 35 34 35 33 31 27 24 25 25 20 21 20 19 18 15 15 18 22 25 23 23 24 23 23 22 24 26 27 26 24 22
25 28 30 30 31 27 22 25 30 31 27 24 33 39 38 36 33 32 27 21 22 23 19 17 17 16 14 12 11 8 8 10 14 16 18 21 23 25 25 27 29 27 23 22
28 28 27 29 31 29 27 26 29 31 24 26 30 33 39 40 37 32 26 20 20 20 19 17 16 14 13 12 13 11 10 11 13 17 21 24 24 24 22 20 22 20 19 19
28 29 28 28 30 30 31 32 31 31 30 26 28 29 32 34 37 29 24 20 18 18 18 15 13 13 12 12 11 9 7 7 9 11 15 17 17 17 16 16 16 16 15 15
30 33 33 33 30 30 31 32 33 32 31 28 27 28 29 29 32 29 24 21 17 17 15 13 10 10 8 7 8 9 9 8 6 5 5 4 4 6 9 13 15 15 14 13
30 34 38 36 35 36 35 33 33 35 34 31 30 28 28 26 29 33 30 24 19 18 16 15 13 12 10 9 9 10 9 8 8 7 7 4 4 3 5 7 8 8 8 10
29 35 38 37 37 40 38 36 35 34 34 32 30 31 28 27 29 35 36 29 24 20 18 17 17 16 14 13 13 12 11 9 9 9 8 6 2 4 4 5 7 8 9 11
38 40 40 38 36 37 39 42 42 38 36 34 31 30 28 28 28 32 36 32 26 24 21 20 20 19 18 16 14 14 13 11 10 9 8 7 4 3 4 6 8 10 10 11
41 41 43 42 39 36 35 39 40 40 38 36 33 31 29 27 26 30 34 34 28 26 24 24 23 22 20 17 15 14 12 12 12 12 11 11 10 9 10 11 12 12 12 13
Wind_Direction
250 248 245 246 248 251 251 251 252 250 252 257 256 256 258 258 259 263 264 262 262 262 264 265 262 257 255 251 250 254 256 254 257 262 265 268 264 260 260 261 262 263 262 263
253 254 254 254 253 255 256 257 256 255 260 264 269 270 269 268 265 264 267 270 270 269 267 264 260 255 254 249 247 250 253 252 257 261 263 263 261 256 257 257 251 249 253 255
255 256 257 257 257 258 259 260 260 259 261 266 269 272 274 277 277 272 270 272 273 274 274 275 272 255 255 242 240 245 254 258 261 257 259 265 266 262 265 267 254 242 241 242
253 257 258 257 257 255 260 261 263 265 263 264 266 267 270 274 277 279 279 279 275 272 272 275 280 279 284 286 279 274 273 273 275 265 256 260 271 274 269 264 258 258 245 240
252 252 253 255 256 256 257 263 269 272 271 266 264 267 267 266 266 270 274 276 278 278 278 277 277 277 279 280 279 279 281 286 284 275 256 254 268 278 275 263 253 240 245 257
251 253 255 258 260 259 261 264 268 274 277 275 270 270 271 268 267 267 268 271 273 278 281 281 280 280 281 281 281 282 283 287 285 280 271 270 270 267 263 257 252 260 263 262
258 255 254 254 259 263 269 271 272 276 278 285 286 283 289 283 277 275 274 276 279 280 281 283 283 283 283 283 284 285 287 284 276 268 269 280 270 267 266 260 257 258 260 264
304 292 277 273 276 286 293 291 285 284 284 287 294 301 304 296 289 290 290 288 288 288 286 284 282 281 280 281 281 281 281 279 276 268 267 274 259 250 256 259 259 260 262 265
294 287 287 279 282 291 296 298 299 297 298 298 300 300 298 296 307 310 306 301 298 298 297 293 287 284 282 281 281 279 276 272 270 264 253 258 251 242 247 250 252 256 259 263
359 340 341 324 300 295 297 298 299 299 302 304 305 303 295 299 313 318 319 318 316 315 311 308 301 295 291 288 284 281 277 268 269 266 255 260 265 254 245 242 248 257 264 269
326 300 290 285 284 293 296 297 296 296 300 303 304 308 297 307 317 319 320 319 317 316 315 317 315 303 292 286 283 285 280 266 261 263 257 254 256 248 249 254 261 265 271 271
289 289 287 289 289 290 290 293 295 295 297 298 299 308 300 305 311 314 318 319 318 322 322 322 320 316 299 274 260 265 253 244 241 251 249 251 253 244 249 260 264 265 265 265
292 296 297 294 292 289 288 289 291 293 294 296 297 303 300 303 308 312 318 321 319 324 325 325 321 316 298 246 232 242 238 236 227 231 234 243 244 240 252 262 263 263 266 268
298 297 298 298 296 290 286 289 291 291 293 290 294 295 297 300 305 310 318 322 322 324 321 325 323 307 300 262 240 264 255 241 230 224 227 230 234 234 247 264 266 265 267 268
293 297 300 302 298 295 286 287 291 291 289 289 289 289 292 295 299 307 316 318 322 323 316 318 317 299 293 279 290 296 273 259 241 240 242 244 243 248 251 259 264 263 261 259
305 305 304 306 300 297 301 294 286 287 286 279 281 287 288 290 295 304 311 314 323 323 317 315 312 309 302 295 295 279 250 255 258 262 256 248 242 238 241 249 258 263 264 265
309 307 305 308 300 297 310 304 297 292 285 281 282 281 283 284 289 297 307 312 322 321 315 320 318 310 319 305 286 278 266 265 274 273 268 259 255 249 245 252 261 263 267 268
315 312 311 312 307 307 317 309 306 306 302 290 281 280 282 283 287 293 303 309 318 320 316 324 334 323 320 324 297 272 262 266 269 256 250 256 261 259 257 262 268 267 268 269
317 316 316 316 312 315 324 313 309 314 326 302 281 272 277 283 284 288 295 304 311 318 313 317 332 338 337 331 333 308 268 254 255 254 253 257 260 260 261 256 251 258 263 265
316 318 320 320 320 325 327 313 307 309 312 304 299 288 279 275 276 282 287 294 299 310 311 308 313 324 331 332 329 325 309 287 272 267 266 265 263 259 256 250 245 245 251 261
312 312 314 314 318 323 321 316 313 311 311 304 301 300 289 280 268 271 277 285 288 297 308 311 308 311 322 333 340 346 337 309 293 286 277 269 263 257 251 242 232 228 234 242
311 309 308 310 315 317 315 314 315 314 315 311 302 296 293 283 266 261 270 277 280 281 292 302 307 308 321 338 356 8 10 3 352 343 335 310 258 230 223 226 230 232 237 249
307 303 303 305 311 310 309 308 309 310 313 313 310 306 293 288 268 257 261 267 269 270 270 279 286 288 295 304 315 322 324 332 343 355 3 23 80 145 194 211 222 226 242 263
300 295 303 306 304 301 303 302 301 299 301 304 306 309 298 292 280 262 259 259 261 262 263 263 266 271 279 288 296 297 298 306 320 333 345 0 76 144 189 225 247 261 270 275
304 311 317 318 311 302 302 304 306 305 302 301 301 304 304 295 287 272 259 256 259 257 257 261 262 266 271 275 279 279 282 291 303 312 321 326 327 302 275 272 273 274 276 277
312 316 316 317 315 309 303 298 301 300 299 298 297 297 299 294 286 281 266 255 257 259 257 259 262 264 265 268 272 280 286 288 287 287 288 288 287 284 283 285 285 288 293 296
Height
5856 5858 5858 5859 5860 5861 5862 5863 5865 5866 5865 5866 5868 5870 5869 5871 5871 5870 5869 5867 5865 5862 5862 5861 5861 5858 5858 5857 5857 5857 5858 5858 5857 5855 5854 5851 5850 5851 5851 5852 5854 5855 5855 5856
5852 5853 5854 5856 5856 5857 5857 5858 5859 5860 5859 5860 5861 5862 5862 5863 5864 5863 5861 5861 5859 5857 5854 5850 5848 5844 5843 5844 5846 5847 5848 5848 5848 5846 5842 5839 5837 5837 5836 5836 5837 5840 5841 5843
5847 5848 5849 5850 5850 5851 5851 5851 5852 5854 5854 5854 5855 5855 5855 5854 5855 5854 5853 5852 5850 5848 5845 5840 5839 5836 5832 5834 5836 5837 5839 5842 5842 5839 5834 5829 5828 5829 5825 5824 5827 5826 5825 5829
5842 5843 5844 5844 5844 5845 5845 5844 5846 5847 5848 5848 5848 5847 5848 5847 5845 5844 5843 5841 5840 5839 5837 5831 5827 5826 5823 5823 5826 5827 5828 5830 5831 5826 5827 5827 5821 5816 5811 5812 5815 5817 5817 5819
5837 5838 5838 5839 5839 5840 5840 5840 5841 5840 5840 5841 5841 5840 5841 5840 5837 5836 5834 5831 5829 5828 5828 5826 5823 5820 5817 5816 5817 5818 5818 5822 5821 5817 5813 5814 5806 5803 5801 5802 5805 5808 5809 5811
5833 5834 5834 5835 5835 5835 5836 5836 5836 5835 5834 5834 5833 5833 5833 5832 5831 5829 5826 5823 5821 5819 5817 5816 5816 5814 5811 5808 5807 5807 5805 5808 5808 5808 5804 5800 5799 5792 5792 5792 5797 5799 5800 5803
5830 5831 5831 5831 5831 5832 5832 5833 5832 5831 5831 5830 5829 5828 5829 5826 5824 5821 5818 5816 5812 5810 5807 5805 5804 5803 5801 5798 5795 5793 5793 5795 5795 5795 5794 5790 5788 5782 5783 5784 5787 5789 5791 5795
5829 5830 5830 5829 5829 5829 5829 5828 5827 5826 5826 5826 5824 5823 5823 5819 5817 5816 5813 5809 5805 5801 5798 5795 5792 5789 5787 5785 5782 5779 5778 5779 5778 5779 5780 5779 5775 5775 5775 5775 5777 5780 5783 5785
5828 5828 5827 5826 5827 5827 5826 5825 5823 5821 5820 5819 5820 5820 5817 5813 5812 5810 5805 5801 5796 5791 5787 5782 5778 5773 5770 5768 5765 5764 5764 5765 5765 5767 5768 5768 5769 5766 5766 5768 5772 5774 5776 5778
5825 5826 5825 5824 5825 5824 5824 5822 5820 5816 5813 5812 5814 5814 5811 5808 5806 5801 5796 5791 5786 5781 5776 5771 5765 5758 5753 5752 5750 5748 5747 5749 5751 5754 5754 5757 5759 5761 5762 5763 5766 5769 5769 5770
5824 5824 5824 5823 5822 5821 5820 5818 5815 5812 5809 5805 5803 5810 5802 5800 5796 5792 5788 5783 5779 5773 5767 5760 5752 5744 5738 5737 5739 5738 5736 5737 5740 5743 5743 5747 5752 5754 5756 5757 5759 5761 5761 5762
5821 5821 5820 5820 5818 5816 5814 5812 5809 5807 5803 5800 5796 5803 5795 5792 5789 5785 5782 5776 5769 5763 5757 5749 5741 5733 5726 5727 5732 5733 5731 5730 5733 5733 5736 5737 5742 5746 5748 5750 5751 5753 5754 5755
5817 5816 5815 5814 5814 5811 5808 5805 5802 5799 5796 5793 5789 5794 5788 5784 5781 5777 5773 5767 5761 5755 5749 5741 5732 5725 5720 5720 5724 5724 5720 5721 5723 5725 5729 5730 5734 5739 5741 5742 5744 5745 5746 5747
5811 5810 5810 5809 5805 5802 5800 5797 5794 5790 5788 5783 5784 5781 5782 5776 5772 5769 5766 5759 5753 5747 5742 5735 5727 5720 5717 5717 5718 5715 5712 5715 5716 5719 5722 5724 5728 5731 5733 5735 5736 5737 5739 5740
5805 5803 5801 5800 5797 5792 5791 5790 5786 5783 5780 5775 5774 5772 5771 5769 5765 5762 5759 5753 5747 5741 5734 5729 5723 5717 5715 5714 5712 5704 5707 5709 5709 5712 5716 5717 5721 5724 5725 5729 5731 5731 5732 5734
5799 5797 5794 5793 5789 5784 5783 5783 5777 5772 5769 5766 5764 5764 5760 5760 5757 5754 5753 5748 5741 5734 5728 5724 5718 5713 5709 5705 5704 5705 5706 5706 5707 5708 5708 5711 5713 5717 5719 5721 5723 5726 5727 5726
5795 5792 5787 5786 5781 5777 5778 5774 5768 5763 5759 5757 5755 5755 5752 5751 5749 5746 5746 5741 5735 5730 5725 5720 5714 5709 5704 5699 5696 5696 5698 5700 5701 5701 5701 5704 5708 5710 5712 5714 5716 5718 5718 5717
5792 5787 5782 5779 5776 5773 5775 5766 5759 5754 5752 5750 5748 5745 5743 5742 5741 5738 5739 5735 5730 5726 5721 5716 5711 5707 5702 5697 5694 5693 5693 5693 5695 5697 5698 5700 5703 5705 5706 5707 5707 5708 5709 5709
5787 5782 5777 5773 5769 5768 5768 5761 5753 5748 5747 5742 5736 5734 5735 5735 5734 5732 5732 5729 5726 5721 5716 5712 5709 5706 5702 5698 5696 5694 5693 5692 5694 5694 5695 5695 5696 5698 5699 5700 5701 5701 5702 5703
5780 5776 5772 5767 5762 5760 5762 5756 5751 5746 5742 5737 5732 5730 5727 5726 5726 5726 5724 5723 5720 5717 5713 5708 5706 5704 5701 5699 5696 5693 5691 5691 5692 5692 5691 5689 5690 5691 5691 5692 5694 5695 5696 5697
5776 5770 5767 5762 5758 5754 5751 5747 5744 5741 5737 5732 5727 5723 5719 5718 5716 5718 5717 5716 5715 5713 5710 5705 5702 5701 5699 5696 5694 5692 5690 5689 5688 5687 5686 5685 5684 5684 5685 5687 5688 5690 5692 5693
5771 5764 5760 5756 5753 5750 5745 5739 5736 5733 5730 5725 5721 5716 5712 5710 5708 5709 5710 5709 5709 5708 5706 5703 5700 5699 5697 5695 5693 5691 5689 5688 5687 5686 5684 5681 5680 5681 5683 5684 5686 5688 5689 5689
5765 5759 5752 5750 5747 5741 5737 5732 5728 5723 5720 5717 5714 5710 5706 5703 5700 5700 5701 5701 5701 5701 5700 5699 5697 5696 5694 5692 5691 5690 5689 5688 5686 5684 5682 5680 5678 5679 5681 5682 5683 5684 5684 5684
5757 5750 5746 5742 5740 5733 5729 5724 5720 5716 5712 5708 5704 5702 5698 5696 5693 5691 5692 5693 5693 5694 5694 5693 5693 5693 5691 5689 5688 5688 5687 5687 5685 5683 5681 5679 5678 5678 5679 5680 5680 5681 5682 5682
5747 5744 5739 5736 5732 5727 5723 5716 5711 5708 5704 5699 5695 5693 5691 5688 5686 5683 5683 5684 5685 5686 5686 5686 5687 5687 5686 5685 5685 5685 5684 5683 5682 5681 5679 5679 5678 5678 5678 5678 5678 5679 5679 5679
5740 5736 5730 5725 5720 5715 5714 5709 5703 5697 5694 5690 5686 5684 5682 5680 5678 5675 5674 5674 5676 5678 5679 5679 5679 5679 5679 5679 5679 5679 5678 5678 5677 5677 5677 5676 5676 5676 5676 5677 5677 5676 5676 5676